Voltar ao catálogo

STARLINK-34574

AtivoComunicaçõesVLEO
NORAD 64714·PAYLOAD·🇺🇸 United States

Lançado Jun 28, 2025 de Vandenberg Space Force Base

Loading…

Próximas Passagens (próximas 24 horas)

TLE

AtualizadoSource: CelesTrak SupGP

Época: Sep 14, 2026, 14:16 UTC

1 64714C 25142U   26257.59493056  .00029330  00000+0  10210-2 0  2578
2 64714  70.0009 196.5238 0002777 265.4443 247.5012 15.29543248    10

Acompanhe STARLINK-34574 em tempo real com AllMySat

Download on the App Store